TimeEST,TemperatureF,Dew PointF,Humidity,Sea Level PressureIn,VisibilityMPH,Wind Direction,Wind SpeedMPH,Gust SpeedMPH,PrecipitationIn,Events,Conditions,WindDirDegrees,DateUTC
12:15 AM,28.4,25.9,90,30.37,7.0,Calm,Calm,-,N/A,,Clear,0,2013-01-09 05:15:00
12:55 AM,26.2,23.9,91,30.37,7.0,Calm,Calm,-,N/A,,Clear,0,2013-01-09 05:55:00
1:15 AM,26.1,23.7,91,30.36,7.0,Calm,Calm,-,N/A,,Clear,0,2013-01-09 06:15:00
1:35 AM,25.7,23.4,91,30.36,7.0,Calm,Calm,-,N/A,,Clear,0,2013-01-09 06:35:00
1:55 AM,25.5,23.2,91,30.36,5.0,Calm,Calm,-,N/A,,Clear,0,2013-01-09 06:55:00
2:15 AM,24.6,22.6,92,30.36,5.0,Calm,Calm,-,N/A,,Clear,0,2013-01-09 07:15:00
2:35 AM,24.3,22.1,91,30.35,7.0,Calm,Calm,-,N/A,,Clear,0,2013-01-09 07:35:00
2:55 AM,24.1,21.9,91,30.35,7.0,Calm,Calm,-,N/A,,Clear,0,2013-01-09 07:55:00
3:15 AM,25.2,23.0,91,30.35,5.0,Calm,Calm,-,N/A,,Clear,0,2013-01-09 08:15:00
3:35 AM,24.8,22.6,91,30.35,5.0,Calm,Calm,-,N/A,,Clear,0,2013-01-09 08:35:00
3:55 AM,25.9,23.5,91,30.35,7.0,Calm,Calm,-,N/A,,Clear,0,2013-01-09 08:55:00
4:15 AM,25.9,23.7,92,30.35,7.0,Calm,Calm,-,N/A,,Clear,0,2013-01-09 09:15:00
4:35 AM,26.8,24.6,92,30.35,7.0,Calm,Calm,-,N/A,,Clear,0,2013-01-09 09:35:00
4:55 AM,26.4,24.1,91,30.35,7.0,Calm,Calm,-,N/A,,Clear,0,2013-01-09 09:55:00
5:15 AM,27.1,24.8,91,30.35,7.0,Calm,Calm,-,N/A,,Clear,0,2013-01-09 10:15:00
5:35 AM,27.3,24.8,90,30.34,7.0,Calm,Calm,-,N/A,,Clear,0,2013-01-09 10:35:00
5:55 AM,27.3,24.8,90,30.34,7.0,Calm,Calm,-,N/A,,Clear,0,2013-01-09 10:55:00
6:15 AM,27.5,24.8,90,30.34,7.0,Calm,Calm,-,N/A,,Clear,0,2013-01-09 11:15:00
6:35 AM,27.5,25.0,90,30.35,7.0,Calm,Calm,-,N/A,,Clear,0,2013-01-09 11:35:00
6:55 AM,27.3,24.6,90,30.35,7.0,Calm,Calm,-,N/A,,Clear,0,2013-01-09 11:55:00
7:15 AM,27.3,24.4,89,30.36,7.0,Calm,Calm,-,N/A,,Clear,0,2013-01-09 12:15:00
7:35 AM,27.0,24.3,90,30.36,7.0,Calm,Calm,-,N/A,,Clear,0,2013-01-09 12:35:00
8:15 AM,28.0,25.5,90,30.36,5.0,Calm,Calm,-,N/A,,Scattered Clouds,0,2013-01-09 13:15:00
8:35 AM,28.6,25.7,89,30.36,5.0,Calm,Calm,-,N/A,,Mostly Cloudy,0,2013-01-09 13:35:00
8:55 AM,29.5,26.4,88,30.36,5.0,Calm,Calm,-,N/A,,Mostly Cloudy,0,2013-01-09 13:55:00
9:15 AM,30.6,27.3,88,30.37,5.0,Calm,Calm,-,N/A,,Mostly Cloudy,0,2013-01-09 14:15:00
9:35 AM,31.8,28.2,87,30.36,7.0,Calm,Calm,-,N/A,,Mostly Cloudy,0,2013-01-09 14:35:00
9:55 AM,33.3,30.0,88,30.35,7.0,Calm,Calm,-,N/A,,Scattered Clouds,0,2013-01-09 14:55:00
10:15 AM,34.7,31.3,87,30.35,7.0,Calm,Calm,-,N/A,,Scattered Clouds,0,2013-01-09 15:15:00
10:35 AM,36.1,31.8,84,30.34,7.0,Calm,Calm,-,N/A,,Clear,0,2013-01-09 15:35:00
10:55 AM,37.2,32.0,81,30.34,7.0,NW,3.5,-,N/A,,Clear,320,2013-01-09 15:55:00
11:15 AM,38.8,33.1,80,30.33,7.0,Calm,Calm,-,N/A,,Clear,0,2013-01-09 16:15:00
11:35 AM,41.5,34.0,75,30.32,10.0,Calm,Calm,-,N/A,,Clear,0,2013-01-09 16:35:00
11:55 AM,45.3,35.2,68,30.31,7.0,Calm,Calm,-,N/A,,Clear,0,2013-01-09 16:55:00
12:15 PM,48.0,35.6,62,30.29,7.0,ESE,3.5,-,N/A,,Clear,110,2013-01-09 17:15:00
12:55 PM,56.7,38.5,51,30.26,10.0,ESE,5.8,-,N/A,,Clear,110,2013-01-09 17:55:00
1:15 PM,60.8,39.4,45,30.28,10.0,Calm,Calm,-,N/A,,Mostly Cloudy,0,2013-01-09 18:15:00
1:35 PM,63.3,43.7,49,30.29,10.0,West,18.4,26.5,N/A,,Mostly Cloudy,270,2013-01-09 18:35:00
1:55 PM,63.5,43.9,49,30.24,10.0,WSW,6.9,11.5,N/A,,Overcast,240,2013-01-09 18:55:00
2:15 PM,64.4,43.5,47,30.24,10.0,South,12.7,20.7,N/A,,Scattered Clouds,190,2013-01-09 19:15:00
2:35 PM,63.0,43.7,49,30.25,10.0,SSW,13.8,18.4,N/A,,Scattered Clouds,200,2013-01-09 19:35:00
2:55 PM,62.8,44.4,51,30.26,10.0,West,9.2,-,N/A,,Overcast,270,2013-01-09 19:55:00
3:15 PM,62.2,44.8,53,30.26,10.0,SSW,3.5,-,N/A,,Overcast,210,2013-01-09 20:15:00
3:35 PM,61.7,45.3,55,30.25,10.0,South,11.5,16.1,N/A,,Overcast,190,2013-01-09 20:35:00
3:55 PM,61.0,45.7,57,30.26,10.0,SSW,8.1,-,N/A,,Overcast,200,2013-01-09 20:55:00
4:15 PM,60.6,45.5,57,30.27,10.0,South,4.6,-,N/A,,Overcast,190,2013-01-09 21:15:00
4:35 PM,60.1,45.5,59,30.28,10.0,Calm,Calm,-,N/A,,Overcast,0,2013-01-09 21:35:00
4:55 PM,59.4,45.0,59,30.28,10.0,West,10.4,-,N/A,,Overcast,260,2013-01-09 21:55:00
5:15 PM,59.0,45.3,60,30.27,10.0,WSW,9.2,23.0,N/A,,Overcast,250,2013-01-09 22:15:00
5:35 PM,58.5,44.6,60,30.28,10.0,WSW,8.1,21.9,N/A,,Overcast,250,2013-01-09 22:35:00
5:55 PM,59.0,44.4,58,30.29,10.0,West,11.5,19.6,N/A,,Overcast,260,2013-01-09 22:55:00
6:15 PM,57.6,42.1,56,30.32,10.0,West,6.9,26.5,N/A,,Mostly Cloudy,270,2013-01-09 23:15:00
6:35 PM,56.7,37.4,49,30.34,10.0,WSW,13.8,33.4,N/A,,Clear,240,2013-01-09 23:35:00
6:55 PM,55.6,34.5,45,30.35,10.0,WNW,15.0,31.1,N/A,,Clear,290,2013-01-09 23:55:00
7:15 PM,54.9,34.5,46,30.36,10.0,WSW,12.7,24.2,N/A,,Clear,250,2013-01-10 00:15:00
7:35 PM,54.0,33.1,45,30.37,10.0,WSW,17.3,23.0,N/A,,Clear,250,2013-01-10 00:35:00
7:55 PM,53.6,32.0,44,30.37,10.0,West,11.5,19.6,N/A,,Clear,260,2013-01-10 00:55:00
8:15 PM,53.4,30.4,41,30.37,10.0,West,17.3,24.2,N/A,,Clear,260,2013-01-10 01:15:00
8:55 PM,53.6,26.4,35,30.38,10.0,West,26.5,38.0,N/A,,Clear,260,2013-01-10 01:55:00
9:15 PM,53.6,24.6,33,30.37,10.0,WNW,27.6,49.5,N/A,,Clear,290,2013-01-10 02:15:00
9:35 PM,53.8,23.2,30,30.38,10.0,West,24.2,50.6,N/A,,Clear,280,2013-01-10 02:35:00
9:55 PM,52.5,26.1,36,30.40,10.0,West,16.1,31.1,N/A,,Clear,260,2013-01-10 02:55:00
10:15 PM,53.4,24.3,32,30.42,10.0,WSW,10.4,16.1,N/A,,Clear,250,2013-01-10 03:15:00
10:35 PM,52.3,26.1,36,30.43,10.0,South,9.2,-,N/A,,Clear,170,2013-01-10 03:35:00
10:55 PM,50.4,28.0,42,30.45,10.0,Calm,Calm,-,N/A,,Clear,0,2013-01-10 03:55:00
11:15 PM,49.8,29.5,46,30.45,10.0,Calm,Calm,-,N/A,,Clear,0,2013-01-10 04:15:00
11:35 PM,49.8,30.0,47,30.45,10.0,Calm,Calm,-,N/A,,Clear,0,2013-01-10 04:35:00
11:55 PM,49.5,31.1,49,30.46,10.0,WSW,3.5,-,N/A,,Clear,250,2013-01-10 04:55:00